Regional Weather Roundup
Issued by NWS

Home | Current Version | Previous Version | Text Only | Print | Product List | Glossary Off
Versions: 1 2 3 4 5 6 7 8 9 10 11 12 13 14 15 16 17 18 19 20 21 22 23 24 25 26 27 28 29 30 31 32 33 34 35 36 37 38 39 40 41 42 43 44 45 46 47 48 49 50

000
ASUS43 KLOT 270412
RWRIL

ILLINOIS REGIONAL WEATHER ROUNDUP
NATIONAL WEATHER SERVICE CHICAGO/ROMEOVILLE IL
1100 PM CDT TUE MAY 26 2015

NOTE: "FAIR" INDICATES FEW OR NO CLOUDS BELOW 12,000 FEET WITH NO
SIGNIFICANT WEATHER AND/OR OBSTRUCTIONS TO VISIBILITY.

* THESE STATIONS ARE NOT UNDER NWS QUALITY CONTROL. THEY ALSO MAY NOT
  REPORT WEATHER SUCH AS PRECIPITATION OR FOG.

ILZ001-002-007-009-015-016-024-270500-
NORTHWEST ILLINOIS

CITY           SKY/WX    TMP DP  RH WIND       PRES   REMARKS
MOLINE         MOCLDY    65  61  87 W5        29.84R
STERLING*      MOCLDY    64  61  88 SW3       29.84S
SAVANNA*       RAIN      67  61  80 SW6       29.83R
$$

ILZ003-004-008-010-011-017-018-270500-
NORTH CENTRAL ILLINOIS

CITY           SKY/WX    TMP DP  RH WIND       PRES   REMARKS
ROCKFORD       CLOUDY    66  61  84 S9        29.84S
FREEPORT*      CLOUDY    65  61  88 SW8       29.84R
ROCHELLE*      HVY RAIN  63  61  96 SW12      29.86R
DE KALB*       CLOUDY    64  60  88 S12       29.85F
PERU*          CLOUDY    68  62  80 SW13      29.86R
$$

ILZ005-006-012>014-019>023-270500-
NORTHEAST ILLINOIS

CITY           SKY/WX    TMP DP  RH WIND       PRES   REMARKS
CHICAGO-OHARE  MOCLDY    67  60  78 S9        29.84S
CHICAGO-MIDWAY MOCLDY    71  61  70 S10       29.85S
AURORA         MOCLDY    68  61  78 S12       29.85S
LANSING*       MOCLDY    67  60  77 S13       29.89S
JOLIET*        CLOUDY    70  64  79 S9        29.86F
WAUKEGAN       MOCLDY    65  60  84 SW10      29.82R
DUPAGE AIRPORT LGT RAIN  67  61  81 S10       29.84S
KANKAKEE*      CLEAR     66  62  85 S14       29.90F
WHEELING       CLEAR     67  59  75 S8        29.85S
MORRIS*        MOCLDY    68  62  81 S10       29.85F
ROMEOVILLE*    CLOUDY    69  61  76 SW12      29.86F
NORTHERLY ISL    N/A     70  59  68 S10         N/A
$$

LMZ740>746-270500-
SOUTHERN LAKE MICHIGAN

STATION/POSITION SKY/WX   TEMP    WIND        PRES    VSBY  WAVE
                          AIR SEA DIR/SP/G                  HT/PER
                          (F)     (DEG/KT/KT) (MB)    (MI)  (FT/S)
SOUTHERN BUOY              47 38  200/ 14/ 16 1010.4R         2/ 4
HARRISON CRIB              70     210/ 19/ 24   N/A
BURNHAM HARBOR             69     210/  9/ 11   N/A
CALUMET HARBOR             70     190/  8/ 12   N/A
BURNS HARBOR               69     200/ 13/ 16 1012.5R
MICHIGAN CITY              69     180/ 13/ 16   N/A
MICHIGAN CITY 6N           63 52  210/ 12/ 16   N/A           1/ 3
ST. JOSEPH                 61 55  230/ 10/ 12   N/A           2/ 4
$$

ILZ025>027-034>036-040-047-049-050-058-095>099-270500-
WEST-CENTRAL ILLINOIS

CITY           SKY/WX    TMP DP  RH WIND       PRES   REMARKS
QUINCY         MOCLDY    69  62  78 SW9       29.92R
GALESBURG*     PTCLDY    64  61  91 SW8       29.88R
MACOMB*        PTCLDY    66  63  89 SW6       29.92R
JACKSONVILLE*  MOCLDY    72  62  69 S12       29.93R
PITTSFIELD*    CLOUDY    72  61  67 S10G17    29.94R
$$

ILZ028>032-037-038-041>044-048-051>054-059>061-270500-
CENTRAL ILLINOIS

CITY           SKY/WX    TMP DP  RH WIND       PRES   REMARKS
PONTIAC        PTCLDY    70  64  81 S17       29.89F
BLOOMINGTON    MOCLDY    69  64  84 S16       29.93R
DECATUR        CLEAR     70  60  70 S16       29.95R
PEORIA         MOCLDY    72  60  66 S16       29.87R
LACON*         MOCLDY    66  63  90 W9        29.87S
LINCOLN*       FAIR      70  62  74 S8        29.90R
SPRINGFIELD    PTCLDY    72  60  66 S15       29.93R
TAYLORVILLE    CLEAR     68  61  77 S13       29.96R
$$

ILZ033-039-045-046-055>057-062-063-270500-
EAST-CENTRAL ILLINOIS

CITY           SKY/WX    TMP DP  RH WIND       PRES   REMARKS
CHAMPAIGN      CLEAR     67  60  78 S13       29.95S
DANVILLE*      CLEAR     67  60  79 SW13      29.94S
RANTOUL*       CLEAR     70  62  76 S14       29.94S
MATTOON        CLEAR     68  60  75 S9        29.98R
PARIS*         CLEAR     69  61  75 S12       29.99S
$$

ILZ079-100>102-270500-
SOUTHWEST ILLINOIS

CITY           SKY/WX    TMP DP  RH WIND       PRES   REMARKS
ALTON          CLEAR     70  66  87 S9        29.98R
BELLEVILLE     CLEAR     69  63  80 S10       29.99R
CAHOKIA*       CLEAR     71  61  70 S6        29.99R
SPARTA*        CLEAR     68  61  78 S7        30.03R
$$

ILZ064>066-069>071-074>076-080>082-084>086-088>090-092>094-270500-
SOUTH-CENTRAL ILLINOIS

CITY           SKY/WX    TMP DP  RH WIND       PRES   REMARKS
CARBONDALE     CLEAR     67  63  87 S9        30.04R
CAIRO*         CLEAR     69  63  81 S7        30.06F
EFFINGHAM*     CLEAR     68  57  68 SE6       30.01S
MARION         CLEAR     68  64  88 S6        30.05S
MT. VERNON     CLEAR     66  61  82 S8        30.03S
CENTRALIA*     CLEAR     67  60  78 S8        30.02R
SALEM*         CLEAR     71  61  71 S10       30.01S
METROPOLIS*    CLEAR     67  63  84 S5        30.06S
$$

ILZ067-068-072-073-078-083-087-091-270500-
SOUTHEAST ILLINOIS

CITY           SKY/WX    TMP DP  RH WIND       PRES   REMARKS
LAWRENCEVILLE  CLEAR     69  61  75 SW10      30.03R
FLORA*         CLEAR     67  62  83 S9        30.02S
FAIRFIELD*     CLEAR     68  63  83 S7        30.03S
HARRISBURG*    CLEAR     68  64  86 SW5       30.06S
ROBINSON*      CLEAR     70  61  73 SW10      30.02S
CARMI*         CLEAR     70  59  68 S8        30.04S
$$

ABBREVIATIONS USED IN REMARKS
   TC - TEMPERATURE IN CELSIUS
  WCI - WIND CHILL INDEX
   HX - HEAT INDEX
  VSB - VISIBILITY
$$




USA.gov is the U.S. government's official web portal to all federal, state and local government web resources and services.